TimeAKDT,TemperatureF,Dew PointF,Humidity,Sea Level PressureIn,VisibilityMPH,Wind Direction,Wind SpeedMPH,Gust SpeedMPH,PrecipitationIn,Events,Conditions,WindDirDegrees,DateUTC
12:53 AM,46.4,39.2,76,29.91,10.0,SSW,19.6,-,N/A,,Overcast,200,2011-10-01 08:53:00
1:53 AM,46.9,39.0,74,29.92,10.0,SSW,25.3,34.5,N/A,,Mostly Cloudy,210,2011-10-01 09:53:00
2:53 AM,46.9,39.0,74,29.94,10.0,SSW,23.0,32.2,N/A,,Overcast,200,2011-10-01 10:53:00
3:53 AM,46.4,37.4,71,29.94,10.0,SSW,20.7,27.6,N/A,,Scattered Clouds,200,2011-10-01 11:53:00
4:53 AM,46.9,37.9,71,29.95,10.0,SSW,19.6,27.6,N/A,,Overcast,210,2011-10-01 12:53:00
5:53 AM,46.9,37.9,71,29.96,10.0,SSW,17.3,-,N/A,,Overcast,210,2011-10-01 13:53:00
6:53 AM,46.9,39.0,74,29.97,10.0,SSW,17.3,-,N/A,,Overcast,200,2011-10-01 14:53:00
7:53 AM,46.9,39.0,74,29.99,10.0,SSW,16.1,27.6,N/A,,Mostly Cloudy,200,2011-10-01 15:53:00
8:53 AM,46.9,39.0,74,30.00,10.0,SSW,16.1,24.2,N/A,,Mostly Cloudy,200,2011-10-01 16:53:00
9:53 AM,46.9,39.0,74,30.00,10.0,East,3.5,-,N/A,,Overcast,80,2011-10-01 17:53:00
10:53 AM,48.0,37.0,66,30.00,10.0,Calm,Calm,-,N/A,,Overcast,0,2011-10-01 18:53:00
11:53 AM,48.2,37.4,66,30.00,10.0,Calm,Calm,-,N/A,,Overcast,0,2011-10-01 19:53:00
12:53 PM,48.9,37.0,64,30.00,10.0,Calm,Calm,-,N/A,,Overcast,0,2011-10-01 20:53:00
1:53 PM,50.0,37.0,61,29.99,10.0,Calm,Calm,-,N/A,,Overcast,0,2011-10-01 21:53:00
2:53 PM,48.0,37.0,66,29.99,10.0,Calm,Calm,-,N/A,,Mostly Cloudy,0,2011-10-01 22:53:00
3:53 PM,48.0,37.9,68,29.97,10.0,Calm,Calm,-,N/A,,Clear,0,2011-10-01 23:53:00
4:53 PM,48.2,37.4,66,29.95,10.0,Calm,Calm,-,N/A,,Clear,0,2011-10-02 00:53:00
5:53 PM,46.0,39.0,76,29.94,10.0,Calm,Calm,-,N/A,,Clear,0,2011-10-02 01:53:00
6:53 PM,45.0,39.9,82,29.94,10.0,Calm,Calm,-,N/A,,Clear,0,2011-10-02 02:53:00
7:53 PM,42.1,39.0,89,29.94,10.0,Calm,Calm,-,N/A,,Clear,0,2011-10-02 03:53:00
8:53 PM,39.9,37.0,89,29.94,10.0,NNE,3.5,-,N/A,,Clear,30,2011-10-02 04:53:00
9:53 PM,39.0,36.0,89,29.94,10.0,NE,3.5,-,N/A,,Clear,50,2011-10-02 05:53:00
10:53 PM,37.9,36.0,93,29.95,10.0,Calm,Calm,-,N/A,,Clear,0,2011-10-02 06:53:00
11:53 PM,36.0,35.1,97,29.96,10.0,ENE,3.5,-,N/A,,Clear,60,2011-10-02 07:53:00